EUTELSAT 115 WEST B

Last updated on Thu Jul 03 2025 00:02:46 GMT+0000 (Coordinated Universal Time)

1 40425U 15010B 25183.54385887 -.00000017 00000+0 00000+0 0 9996 2 40425 0.0039 169.0181 0000514 204.4375 348.2502 1.00271530 37889
UTC large
Height (km)
Speed (km/s)
/
Latitude / Longitude
Inclination (degrees)
Orbital Period (minutes)
Azimuth
Elevation
Range (km)
Doppler Factor

Next 0 passes for location: London (51.5072 / 0.1276)

Sorry there are no passes over London.